When you browse on this site, cookies collect data to enhance your experience and personalize the content and advertising you see.
Visit our Privacy Policy to learn more. By continuing to use the site, you agree to this use of cookies and data.
  • In Österreich
  • Länderverzeichnis
  • Für 7 Tage
  • Wassertemperatur
  • Wetterkarte
  • News
  • Widgets
  • user-avatar
    Anmelden

    Stündliche Wetter Granitnyy

    Heute, 5 Juni, Freitag

    Zeit Temperatur Niederschläge Wind Luftdruck Luftfeuchtigkeit
    00:00 +14°C° 0 mm 6 m/S 743 mmHg 54%
    01:00 +13°C° 0 mm 6 m/S 743 mmHg 57%
    02:00 +13°C° 0 mm 6 m/S 743 mmHg 57%
    03:00 +11°C° 0 mm 6 m/S 744 mmHg 58%
    04:00 +10°C° 0 mm 6 m/S 744 mmHg 56%
    05:00 +11°C° 0 mm 6 m/S 744 mmHg 54%
    06:00 +13°C° 0 mm 6 m/S 745 mmHg 51%
    07:00 +13°C° 0 mm 6 m/S 745 mmHg 49%
    08:00 +15°C° 0 mm 6 m/S 745 mmHg 45%
    09:00 +16°C° 0 mm 6 m/S 745 mmHg 41%
    10:00 +19°C° 0 mm 6 m/S 745 mmHg 37%
    11:00 +20°C° 0 mm 6 m/S 745 mmHg 33%
    12:00 +21°C° 0 mm 6 m/S 745 mmHg 30%
    13:00 +22°C° 0 mm 6 m/S 745 mmHg 26%
    14:00 +22°C° 0 mm 6 m/S 745 mmHg 26%
    15:00 +22°C° 0 mm 6 m/S 745 mmHg 27%
    16:00 +23°C° 0 mm 5 m/S 745 mmHg 27%
    17:00 +22°C° 0 mm 5 m/S 745 mmHg 32%
    18:00 +21°C° 0 mm 4 m/S 745 mmHg 36%
    19:00 +20°C° 0 mm 4 m/S 745 mmHg 40%
    20:00 +19°C° 0 mm 4 m/S 745 mmHg 40%
    21:00 +17°C° 0 mm 5 m/S 745 mmHg 40%
    22:00 +16°C° 0 mm 5 m/S 745 mmHg 41%
    23:00 +15°C° 0 mm 5 m/S 745 mmHg 41%

    Morgen, 6 Juni, Samstag

    Zeit Temperatur Niederschläge Wind Luftdruck Luftfeuchtigkeit
    00:00 +15°C° 0 mm 5 m/S 745 mmHg 42%
    01:00 +14°C° 0 mm 5 m/S 745 mmHg 42%
    02:00 +13°C° 0 mm 4 m/S 745 mmHg 45%
    03:00 +13°C° 0 mm 4 m/S 745 mmHg 48%
    04:00 +12°C° 0 mm 4 m/S 745 mmHg 50%
    05:00 +14°C° 0 mm 5 m/S 746 mmHg 47%
    06:00 +15°C° 0 mm 6 m/S 746 mmHg 43%
    07:00 +17°C° 0 mm 6 m/S 746 mmHg 40%
    08:00 +19°C° 0 mm 6 m/S 746 mmHg 37%
    09:00 +21°C° 0 mm 6 m/S 746 mmHg 34%
    10:00 +22°C° 0 mm 6 m/S 746 mmHg 32%
    11:00 +23°C° 0 mm 6 m/S 745 mmHg 30%
    12:00 +24°C° 0 mm 6 m/S 745 mmHg 29%
    13:00 +26°C° 0 mm 6 m/S 745 mmHg 27%
    14:00 +26°C° 0 mm 5 m/S 745 mmHg 26%
    15:00 +26°C° 0 mm 5 m/S 745 mmHg 26%
    16:00 +26°C° 0 mm 4 m/S 745 mmHg 25%
    17:00 +25°C° 0 mm 4 m/S 745 mmHg 30%
    18:00 +23°C° 0 mm 4 m/S 744 mmHg 34%
    19:00 +22°C° 0 mm 4 m/S 744 mmHg 39%
    20:00 +20°C° 0 mm 4 m/S 744 mmHg 48%
    21:00 +18°C° 0 mm 3 m/S 745 mmHg 57%
    22:00 +16°C° 0 mm 3 m/S 745 mmHg 66%
    23:00 +16°C° 0 mm 2 m/S 745 mmHg 65%

    übermorgen, 7 Juni, Sonntag

    Zeit Temperatur Niederschläge Wind Luftdruck Luftfeuchtigkeit
    00:00 +16°C° 0 mm 2 m/S 745 mmHg 64%
    01:00 +16°C° 0 mm 2 m/S 744 mmHg 63%
    02:00 +16°C° 0 mm 3 m/S 745 mmHg 61%
    03:00 +16°C° 0 mm 3 m/S 745 mmHg 60%
    04:00 +15°C° 0 mm 4 m/S 745 mmHg 58%
    05:00 +17°C° 0 mm 4 m/S 745 mmHg 56%
    06:00 +17°C° 0 mm 5 m/S 745 mmHg 55%
    07:00 +19°C° 0 mm 5 m/S 745 mmHg 53%
    08:00 +21°C° 0 mm 5 m/S 745 mmHg 45%
    09:00 +22°C° 0 mm 5 m/S 745 mmHg 38%
    10:00 +25°C° 0 mm 4 m/S 746 mmHg 30%
    11:00 +25°C° 0 mm 4 m/S 745 mmHg 28%
    12:00 +26°C° 0 mm 4 m/S 745 mmHg 27%
    13:00 +27°C° 0 mm 3 m/S 745 mmHg 25%
    14:00 +27°C° 0 mm 3 m/S 745 mmHg 24%
    15:00 +27°C° 0 mm 3 m/S 745 mmHg 24%
    16:00 +27°C° 0 mm 3 m/S 744 mmHg 23%
    17:00 +27°C° 0 mm 2 m/S 744 mmHg 27%
    18:00 +26°C° 0 mm 2 m/S 744 mmHg 31%
    19:00 +25°C° 0 mm 2 m/S 744 mmHg 35%
    20:00 +22°C° 0 mm 3 m/S 744 mmHg 37%
    21:00 +21°C° 0 mm 3 m/S 744 mmHg 38%
    22:00 +19°C° 0 mm 4 m/S 744 mmHg 39%
    23:00 +19°C° 0 mm 4 m/S 744 mmHg 42%

    8 Juni, Montag

    Zeit Temperatur Niederschläge Wind Luftdruck Luftfeuchtigkeit
    00:00 +18°C° 0 mm 3 m/S 744 mmHg 45%
    01:00 +17°C° 0 mm 3 m/S 744 mmHg 48%
    02:00 +17°C° 0 mm 3 m/S 744 mmHg 48%
    03:00 +16°C° 0 mm 3 m/S 744 mmHg 49%
    04:00 +16°C° 0 mm 3 m/S 744 mmHg 49%
    05:00 +18°C° 0 mm 3 m/S 745 mmHg 47%
    06:00 +20°C° 0 mm 4 m/S 745 mmHg 45%
    07:00 +21°C° 0 mm 4 m/S 745 mmHg 43%
    08:00 +23°C° 0 mm 5 m/S 745 mmHg 38%
    09:00 +26°C° 0 mm 5 m/S 745 mmHg 33%
    10:00 +27°C° 0 mm 5 m/S 745 mmHg 28%
    11:00 +27°C° 0 mm 5 m/S 745 mmHg 28%
    12:00 +27°C° 0 mm 5 m/S 745 mmHg 28%
    13:00 +27°C° 0 mm 5 m/S 745 mmHg 28%
    14:00 +28°C° 0 mm 5 m/S 745 mmHg 28%
    15:00 +28°C° 0 mm 5 m/S 745 mmHg 28%
    16:00 +28°C° 0 mm 5 m/S 745 mmHg 28%
    17:00 +27°C° 0 mm 4 m/S 745 mmHg 32%
    18:00 +26°C° 0 mm 4 m/S 745 mmHg 36%
    19:00 +25°C° 0 mm 3 m/S 745 mmHg 40%
    20:00 +22°C° 0 mm 3 m/S 745 mmHg 42%
    21:00 +21°C° 0 mm 3 m/S 745 mmHg 43%
    22:00 +19°C° 0 mm 3 m/S 746 mmHg 45%
    23:00 +19°C° 0 mm 2 m/S 746 mmHg 47%

    9 Juni, Dienstag

    Zeit Temperatur Niederschläge Wind Luftdruck Luftfeuchtigkeit
    00:00 +18°C° 0 mm 2 m/S 746 mmHg 49%
    01:00 +18°C° 0 mm 1 m/S 746 mmHg 50%
    02:00 +18°C° 0 mm 1 m/S 746 mmHg 51%
    03:00 +17°C° 0 mm 2 m/S 746 mmHg 51%
    04:00 +17°C° 0 mm 2 m/S 746 mmHg 51%
    05:00 +19°C° 0 mm 2 m/S 746 mmHg 48%
    06:00 +20°C° 0 mm 3 m/S 747 mmHg 46%
    07:00 +22°C° 0 mm 3 m/S 747 mmHg 44%
    08:00 +25°C° 0 mm 3 m/S 747 mmHg 39%
    09:00 +26°C° 0 mm 4 m/S 747 mmHg 34%
    10:00 +28°C° 0 mm 4 m/S 747 mmHg 29%
    11:00 +29°C° 0 mm 4 m/S 747 mmHg 28%
    12:00 +29°C° 0 mm 4 m/S 747 mmHg 26%
    13:00 +30°C° 0 mm 4 m/S 747 mmHg 25%
    14:00 +30°C° 0 mm 4 m/S 747 mmHg 24%
    15:00 +30°C° 0 mm 4 m/S 747 mmHg 24%
    16:00 +32°C° 0 mm 4 m/S 746 mmHg 24%
    17:00 +30°C° 0 mm 3 m/S 746 mmHg 27%
    18:00 +28°C° 0 mm 3 m/S 746 mmHg 31%
    19:00 +27°C° 0 mm 3 m/S 746 mmHg 35%
    20:00 +26°C° 0 mm 3 m/S 746 mmHg 37%
    21:00 +24°C° 0 mm 3 m/S 746 mmHg 39%
    22:00 +21°C° 0 mm 3 m/S 746 mmHg 41%
    23:00 +20°C° 0 mm 3 m/S 746 mmHg 42%

    10 Juni, Mittwoch

    Zeit Temperatur Niederschläge Wind Luftdruck Luftfeuchtigkeit
    00:00 +20°C° 0 mm 2 m/S 747 mmHg 43%
    01:00 +19°C° 0 mm 2 m/S 747 mmHg 44%
    02:00 +19°C° 0 mm 2 m/S 747 mmHg 45%
    03:00 +18°C° 0 mm 2 m/S 747 mmHg 47%
    04:00 +18°C° 0 mm 2 m/S 747 mmHg 48%
    05:00 +20°C° 0 mm 2 m/S 747 mmHg 46%
    06:00 +23°C° 0 mm 2 m/S 747 mmHg 44%
    07:00 +24°C° 0 mm 2 m/S 748 mmHg 41%
    08:00 +26°C° 0 mm 2 m/S 748 mmHg 37%
    09:00 +28°C° 0 mm 2 m/S 748 mmHg 33%
    10:00 +29°C° 0 mm 3 m/S 748 mmHg 29%
    11:00 +30°C° 0 mm 2 m/S 748 mmHg 28%
    12:00 +30°C° 0 mm 2 m/S 747 mmHg 27%
    13:00 +31°C° 0 mm 2 m/S 747 mmHg 25%
    14:00 +31°C° 0 mm 2 m/S 747 mmHg 25%
    15:00 +32°C° 0 mm 2 m/S 747 mmHg 24%
    16:00 +32°C° 0 mm 2 m/S 747 mmHg 24%
    17:00 +31°C° 0 mm 3 m/S 746 mmHg 29%
    18:00 +30°C° 0 mm 3 m/S 746 mmHg 34%
    19:00 +28°C° 0 mm 4 m/S 746 mmHg 39%
    20:00 +27°C° 0 mm 4 m/S 746 mmHg 42%
    21:00 +25°C° 0 mm 3 m/S 746 mmHg 45%
    22:00 +24°C° 0 mm 3 m/S 746 mmHg 48%
    23:00 +22°C° 0 mm 3 m/S 746 mmHg 49%
    Mehr zeigen